| time (UTC) | temp F | wind direction | speed MPH | gust MPH | rain 1hr in | rain 24hr in | rain mn in | humidity % | barometer mb |
| 20260504023604 | 84 | 240 | 0.0 | 2.0 | 0.00 | 0.00 | 0.00 | 39 | 1006.6 |
| 20260504023104 | 84 | 240 | 1.0 | 3.0 | 0.00 | 0.00 | 0.00 | 37 | 1006.6 |
| 20260504022604 | 84 | 232 | 0.0 | 4.0 | 0.00 | 0.00 | 0.00 | 38 | 1006.6 |
| 20260504022104 | 85 | 232 | 3.0 | 4.0 | 0.00 | 0.00 | 0.00 | 36 | 1006.6 |
| 20260504021604 | 85 | 250 | 2.0 | 4.0 | 0.00 | 0.00 | 0.00 | 35 | 1006.7 |
| 20260504021005 | 85 | 245 | 3.0 | 4.0 | 0.00 | 0.00 | 0.00 | 35 | 1006.8 |
| 20260504020504 | 86 | 250 | 3.0 | 4.0 | 0.00 | 0.00 | 0.00 | 34 | 1006.7 |
| 20260504015604 | 86 | 236 | 2.0 | 3.0 | 0.00 | 0.00 | 0.00 | 34 | 1006.7 |
| 20260504015104 | 87 | 245 | 2.0 | 3.0 | 0.00 | 0.00 | 0.00 | 34 | 1006.7 |
| 20260504014604 | 87 | 230 | 3.0 | 4.0 | 0.00 | 0.00 | 0.00 | 34 | 1006.7 |
| 20260504014104 | 87 | 271 | 2.0 | 4.0 | 0.00 | 0.00 | 0.00 | 34 | 1006.8 |
| 20260504013604 | 87 | 220 | 3.0 | 4.0 | 0.00 | 0.00 | 0.00 | 35 | 1006.7 |
| 20260504012904 | 87 | 191 | 2.0 | 4.0 | 0.00 | 0.00 | 0.00 | 36 | 1006.6 |
| 20260504012004 | 87 | 221 | 4.0 | 5.0 | 0.00 | 0.00 | 0.00 | 33 | 1006.8 |
| 20260504011504 | 87 | 281 | 1.0 | 3.0 | 0.00 | 0.00 | 0.00 | 32 | 1006.8 |
| 20260504011004 | 87 | 238 | 3.0 | 7.0 | 0.00 | 0.00 | 0.00 | 38 | 1006.8 |
| 20260504010504 | 87 | 238 | 2.0 | 7.0 | 0.00 | 0.00 | 0.00 | 36 | 1006.7 |
| 20260504005904 | 87 | 232 | 3.0 | 6.0 | 0.00 | 0.00 | 0.00 | 32 | 1006.9 |
| 20260504005405 | 87 | 198 | 3.0 | 6.0 | 0.00 | 0.00 | 0.00 | 35 | 1006.9 |
| 20260504004904 | 88 | 182 | 5.0 | 6.0 | 0.00 | 0.00 | 0.00 | 31 | 1006.9 |
| 20260504004404 | 88 | 239 | 1.0 | 7.0 | 0.00 | 0.00 | 0.00 | 32 | 1006.9 |
| 20260504003804 | 88 | 282 | 3.0 | 7.0 | 0.00 | 0.00 | 0.00 | 27 | 1007.0 |
| 20260504003304 | 88 | 224 | 4.0 | 4.0 | 0.00 | 0.00 | 0.00 | 28 | 1007.0 |
| 20260504002604 | 88 | 256 | 2.0 | 4.0 | 0.00 | 0.00 | 0.00 | 30 | 1007.1 |
| 20260504002104 | 88 | 255 | 0.0 | 4.0 | 0.00 | 0.00 | 0.00 | 30 | 1007.2 |
| 20260504001505 | 88 | 207 | 4.0 | 8.0 | 0.00 | 0.00 | 0.00 | 28 | 1007.2 |
| 20260504000804 | 88 | 225 | 8.0 | 8.0 | 0.00 | 0.00 | 0.00 | 29 | 1007.2 |
| 20260504000304 | 88 | 238 | 6.0 | 6.0 | 0.00 | 0.00 | 0.00 | 29 | 1007.4 |
| 20260503235804 | 88 | 232 | 3.0 | 8.0 | 0.00 | 0.00 | 0.00 | 28 | 1007.4 |
| 20260503235205 | 88 | 223 | 3.0 | 8.0 | 0.00 | 0.00 | 0.00 | 26 | 1007.6 |
| 20260503234704 | 88 | 217 | 4.0 | 5.0 | 0.00 | 0.00 | 0.00 | 28 | 1007.6 |
| 20260503234004 | 87 | 244 | 4.0 | 4.0 | 0.00 | 0.00 | 0.00 | 32 | 1007.7 |
| 20260503233504 | 87 | 247 | 2.0 | 10.0 | 0.00 | 0.00 | 0.00 | 30 | 1007.7 |
| 20260503233004 | 87 | 220 | 3.0 | 10.0 | 0.00 | 0.00 | 0.00 | 33 | 1007.7 |
| 20260503232305 | 87 | 231 | 5.0 | 10.0 | 0.00 | 0.00 | 0.00 | 28 | 1007.7 |
| 20260503231804 | 88 | 244 | 10.0 | 10.0 | 0.00 | 0.00 | 0.00 | 36 | 1007.8 |
| 20260503231304 | 88 | 284 | 2.0 | 6.0 | 0.00 | 0.00 | 0.00 | 37 | 1007.8 |
| 20260503230804 | 87 | 220 | 6.0 | 6.0 | 0.00 | 0.00 | 0.00 | 32 | 1007.9 |
| 20260503230104 | 87 | 224 | 2.0 | 10.0 | 0.00 | 0.00 | 0.00 | 36 | 1008.0 |
| 20260503225604 | 87 | 161 | 5.0 | 10.0 | 0.00 | 0.00 | 0.00 | 35 | 1008.0 |
| 20260503224904 | 88 | 189 | 2.0 | 4.0 | 0.00 | 0.00 | 0.00 | 35 | 1008.0 |
| 20260503224404 | 88 | 64 | 3.0 | 5.0 | 0.00 | 0.00 | 0.00 | 29 | 1008.1 |
| 20260503223704 | 88 | 355 | 5.0 | 6.0 | 0.00 | 0.00 | 0.00 | 31 | 1008.2 |
| 20260503223204 | 88 | 206 | 5.0 | 7.0 | 0.00 | 0.00 | 0.00 | 35 | 1008.3 |
| 20260503222704 | 87 | 251 | 1.0 | 7.0 | 0.00 | 0.00 | 0.00 | 34 | 1008.5 |
| 20260503222204 | 87 | 288 | 7.0 | 7.0 | 0.00 | 0.00 | 0.00 | 35 | 1008.4 |
| 20260503221704 | 87 | 260 | 6.0 | 6.0 | 0.00 | 0.00 | 0.00 | 36 | 1008.5 |
| 20260503220904 | 87 | 325 | 0.0 | 3.0 | 0.00 | 0.00 | 0.00 | 31 | 1008.6 |
| 20260503220404 | 87 | 299 | 1.0 | 6.0 | 0.00 | 0.00 | 0.00 | 29 | 1008.7 |
| 20260503215804 | 87 | 43 | 6.0 | 6.0 | 0.00 | 0.00 | 0.00 | 33 | 1008.8 |
| 20260503215304 | 87 | 24 | 3.0 | 9.0 | 0.00 | 0.00 | 0.00 | 31 | 1008.8 |
| 20260503214804 | 87 | 18 | 5.0 | 9.0 | 0.00 | 0.00 | 0.00 | 34 | 1008.9 |
| 20260503214304 | 87 | 16 | 3.0 | 6.0 | 0.00 | 0.00 | 0.00 | 31 | 1008.8 |
| 20260503213804 | 87 | 319 | 3.0 | 11.0 | 0.00 | 0.00 | 0.00 | 32 | 1008.9 |
| 20260503213304 | 87 | 5 | 4.0 | 11.0 | 0.00 | 0.00 | 0.00 | 34 | 1008.9 |
| 20260503212804 | 87 | 32 | 11.0 | 11.0 | 0.00 | 0.00 | 0.00 | 36 | 1008.9 |
| 20260503212104 | 87 | 355 | 3.0 | 6.0 | 0.00 | 0.00 | 0.00 | 33 | 1009.1 |
| 20260503211604 | 87 | 53 | 6.0 | 6.0 | 0.00 | 0.00 | 0.00 | 29 | 1009.1 |
| 20260503211104 | 87 | 300 | 1.0 | 4.0 | 0.00 | 0.00 | 0.00 | 27 | 1009.1 |
| 20260503210604 | 86 | 300 | 1.0 | 9.0 | 0.00 | 0.00 | 0.00 | 29 | 1009.3 |
| 20260503210105 | 86 | 324 | 4.0 | 9.0 | 0.00 | 0.00 | 0.00 | 32 | 1009.3 |
| 20260503205604 | 86 | 225 | 2.0 | 5.0 | 0.00 | 0.00 | 0.00 | 34 | 1009.4 |
| 20260503205004 | 86 | 310 | 5.0 | 5.0 | 0.00 | 0.00 | 0.00 | 33 | 1009.5 |
| 20260503204504 | 85 | 244 | 3.0 | 6.0 | 0.00 | 0.00 | 0.00 | 37 | 1009.5 |
| 20260503204004 | 86 | 244 | 3.0 | 6.0 | 0.00 | 0.00 | 0.00 | 37 | 1009.6 |
| 20260503203504 | 86 | 355 | 6.0 | 6.0 | 0.00 | 0.00 | 0.00 | 37 | 1009.7 |
| 20260503203004 | 86 | 82 | 0.0 | 5.0 | 0.00 | 0.00 | 0.00 | 36 | 1009.6 |
| 20260503202504 | 85 | 355 | 2.0 | 5.0 | 0.00 | 0.00 | 0.00 | 35 | 1009.8 |
| 20260503202004 | 85 | 338 | 1.0 | 5.0 | 0.00 | 0.00 | 0.00 | 32 | 1009.9 |
| 20260503201404 | 85 | 5 | 4.0 | 5.0 | 0.00 | 0.00 | 0.00 | 41 | 1009.9 |
| 20260503200804 | 85 | 336 | 3.0 | 7.0 | 0.00 | 0.00 | 0.00 | 40 | 1010.0 |
| 20260503200104 | 85 | 300 | 7.0 | 8.0 | 0.00 | 0.00 | 0.00 | 34 | 1010.2 |
| 20260503195404 | 85 | 32 | 3.0 | 8.0 | 0.00 | 0.00 | 0.00 | 38 | 1010.2 |
| 20260503194904 | 85 | 244 | 2.0 | 2.0 | 0.00 | 0.00 | 0.00 | 40 | 1010.2 |
| 20260503194404 | 84 | 32 | 2.0 | 5.0 | 0.00 | 0.00 | 0.00 | 45 | 1010.3 |
| 20260503193904 | 83 | 32 | 2.0 | 5.0 | 0.00 | 0.00 | 0.00 | 46 | 1010.3 |
| 20260503193204 | 83 | 246 | 3.0 | 10.0 | 0.00 | 0.00 | 0.00 | 45 | 1010.5 |
| 20260503192704 | 83 | 272 | 4.0 | 10.0 | 0.00 | 0.00 | 0.00 | 46 | 1010.5 |
| 20260503192204 | 84 | 330 | 2.0 | 8.0 | 0.00 | 0.00 | 0.00 | 43 | 1010.5 |
| 20260503191703 | 83 | 285 | 2.0 | 7.0 | 0.00 | 0.00 | 0.00 | 41 | 1010.5 |
| 20260503191105 | 83 | 278 | 2.0 | 7.0 | 0.00 | 0.00 | 0.00 | 39 | 1010.6 |
| 20260503190504 | 83 | 225 | 2.0 | 4.0 | 0.00 | 0.00 | 0.00 | 43 | 1010.7 |
| 20260503190004 | 82 | 304 | 2.0 | 3.0 | 0.00 | 0.00 | 0.00 | 39 | 1010.8 |
| 20260503185104 | 82 | 339 | 2.0 | 7.0 | 0.00 | 0.00 | 0.00 | 43 | 1010.7 |
| 20260503184504 | 82 | 360 | 6.0 | 7.0 | 0.00 | 0.00 | 0.00 | 44 | 1010.8 |
| 20260503184004 | 82 | 355 | 1.0 | 3.0 | 0.00 | 0.00 | 0.00 | 42 | 1011.0 |
| 20260503183504 | 81 | 217 | 1.0 | 3.0 | 0.00 | 0.00 | 0.00 | 50 | 1011.0 |
| 20260503183004 | 81 | 217 | 3.0 | 3.0 | 0.00 | 0.00 | 0.00 | 49 | 1011.0 |
| 20260503182505 | 80 | 221 | 2.0 | 3.0 | 0.00 | 0.00 | 0.00 | 54 | 1011.1 |
| 20260503182005 | 80 | 218 | 3.0 | 4.0 | 0.00 | 0.00 | 0.00 | 47 | 1011.1 |
| 20260503181505 | 80 | 215 | 3.0 | 4.0 | 0.00 | 0.00 | 0.00 | 51 | 1011.1 |
| 20260503181004 | 80 | 172 | 1.0 | 2.0 | 0.00 | 0.00 | 0.00 | 55 | 1011.2 |
| 20260503180504 | 80 | 170 | 0.0 | 4.0 | 0.00 | 0.00 | 0.00 | 53 | 1011.2 |
| 20260503180004 | 80 | 170 | 0.0 | 4.0 | 0.00 | 0.00 | 0.00 | 55 | 1011.2 |
| 20260503175504 | 80 | 158 | 0.0 | 2.0 | 0.00 | 0.00 | 0.00 | 54 | 1011.3 |
| 20260503175004 | 80 | 160 | 2.0 | 2.0 | 0.00 | 0.00 | 0.00 | 55 | 1011.3 |
| 20260503174304 | 78 | 153 | 0.0 | 2.0 | 0.00 | 0.00 | 0.00 | 64 | 1011.4 |
| 20260503173804 | 77 | 153 | 0.0 | 2.0 | 0.00 | 0.00 | 0.00 | 61 | 1011.4 |
| 20260503173304 | 76 | 153 | 2.0 | 2.0 | 0.00 | 0.00 | 0.00 | 62 | 1011.5 |
| 20260503172804 | 75 | 153 | 1.0 | 2.0 | 0.00 | 0.00 | 0.00 | 64 | 1011.6 |
| 20260503172305 | 74 | 154 | 0.0 | 1.0 | 0.00 | 0.00 | 0.00 | 62 | 1011.6 |
| 20260503171804 | 73 | 154 | 1.0 | 1.0 | 0.00 | 0.00 | 0.00 | 65 | 1011.7 |
| 20260503171304 | 72 | 155 | 0.0 | 1.0 | 0.00 | 0.00 | 0.00 | 69 | 1011.8 |
| 20260503170604 | 71 | 153 | 1.0 | 2.0 | 0.00 | 0.00 | 0.00 | 75 | 1011.8 |
| 20260503170104 | 70 | 153 | 1.0 | 2.0 | 0.00 | 0.00 | 0.00 | 75 | 1011.8 |
| 20260503151005 | 52 | 217 | 0.0 | 1.0 | 0.00 | 0.00 | 0.00 | 100 | 1012.7 |
| 20260503150504 | 52 | 217 | 0.0 | 1.0 | 0.00 | 0.00 | 0.00 | 100 | 1012.7 |
| 20260503140104 | 46 | 244 | 1.0 | 3.0 | 0.00 | 0.00 | 0.00 | 99 | 1012.6 |
| 20260503131104 | 46 | 360 | 0.0 | 0.0 | 0.00 | 0.00 | 0.00 | 99 | 1012.3 |
| 20260503130604 | 46 | 360 | 0.0 | 0.0 | 0.00 | 0.00 | 0.00 | 99 | 1012.5 |
| 20260503130104 | 46 | 360 | 0.0 | 0.0 | 0.00 | 0.00 | 0.00 | 99 | 1012.4 |
| 20260503120204 | 46 | 360 | 0.0 | 1.0 | 0.00 | 0.00 | 0.00 | 98 | 1012.3 |
| 20260503110604 | 45 | 360 | 0.0 | 0.0 | 0.00 | 0.00 | 0.00 | 98 | 1012.6 |
| 20260503110104 | 45 | 360 | 0.0 | 1.0 | 0.00 | 0.00 | 0.00 | 98 | 1012.6 |
| 20260503090504 | 48 | 310 | 1.0 | 1.0 | 0.00 | 0.00 | 0.00 | 97 | 1012.8 |
| 20260503081304 | 50 | 311 | 0.0 | 1.0 | 0.00 | 0.00 | 0.00 | 97 | 1013.0 |
| 20260503080804 | 50 | 311 | 0.0 | 2.0 | 0.00 | 0.00 | 0.00 | 98 | 1012.9 |
| 20260503080304 | 50 | 311 | 0.0 | 2.0 | 0.00 | 0.00 | 0.00 | 97 | 1012.9 |
| 20260503072804 | 51 | 310 | 1.0 | 2.0 | 0.00 | 0.00 | 0.00 | 96 | 1012.8 |
| 20260503072305 | 51 | 310 | 1.0 | 1.0 | 0.00 | 0.00 | 0.00 | 97 | 1012.9 |
| 20260503071604 | 51 | 310 | 0.0 | 1.0 | 0.00 | 0.00 | 0.00 | 96 | 1012.9 |
| 20260503070304 | 52 | 310 | 1.0 | 1.0 | 0.00 | 0.00 | 0.00 | 96 | 1013.1 |
| 20260503060104 | 54 | 5 | 1.0 | 3.0 | 0.00 | 0.00 | 0.00 | 95 | 1013.1 |
| 20260503054904 | 54 | 360 | 2.0 | 2.0 | 0.00 | 0.00 | 0.00 | 95 | 1012.9 |
| 20260503054404 | 54 | 264 | 2.0 | 3.0 | 0.00 | 0.00 | 0.00 | 95 | 1012.8 |
| 20260503053904 | 54 | 360 | 2.0 | 3.0 | 0.00 | 0.00 | 0.00 | 94 | 1012.8 |
| 20260503053404 | 54 | 360 | 2.0 | 2.0 | 0.00 | 0.00 | 0.00 | 93 | 1013.0 |
| 20260503052904 | 55 | 202 | 0.0 | 1.0 | 0.00 | 0.00 | 0.00 | 93 | 1012.8 |
| 20260503052404 | 55 | 202 | 0.0 | 2.0 | 0.00 | 0.00 | 0.00 | 92 | 1012.8 |
| 20260503051904 | 56 | 360 | 0.0 | 2.0 | 0.00 | 0.00 | 0.00 | 93 | 1012.7 |
| 20260503051404 | 56 | 360 | 2.0 | 2.0 | 0.00 | 0.00 | 0.00 | 94 | 1012.8 |
| 20260503050904 | 56 | 360 | 0.0 | 1.0 | 0.00 | 0.00 | 0.00 | 94 | 1012.8 |
| 20260503050404 | 56 | 360 | 1.0 | 2.0 | 0.00 | 0.00 | 0.00 | 94 | 1012.8 |
| 20260503045904 | 56 | 360 | 1.0 | 2.0 | 0.00 | 0.00 | 0.00 | 92 | 1012.9 |
| 20260503045404 | 56 | 360 | 2.0 | 2.0 | 0.00 | 0.00 | 0.00 | 90 | 1012.9 |
| 20260503044804 | 58 | 360 | 1.0 | 1.0 | 0.00 | 0.00 | 0.00 | 91 | 1013.0 |
| 20260503044304 | 58 | 360 | 0.0 | 2.0 | 0.00 | 0.00 | 0.00 | 91 | 1012.9 |
| 20260503043804 | 58 | 360 | 1.0 | 2.0 | 0.00 | 0.00 | 0.00 | 91 | 1012.8 |
| 20260503043304 | 58 | 203 | 0.0 | 0.0 | 0.00 | 0.00 | 0.00 | 89 | 1012.8 |
| 20260503042804 | 59 | 202 | 0.0 | 1.0 | 0.00 | 0.00 | 0.00 | 89 | 1012.7 |
| 20260503042305 | 59 | 360 | 0.0 | 2.0 | 0.00 | 0.00 | 0.00 | 89 | 1012.6 |
| 20260503041804 | 60 | 202 | 0.0 | 2.0 | 0.00 | 0.00 | 0.00 | 88 | 1012.6 |
| 20260503041004 | 60 | 202 | 2.0 | 2.0 | 0.00 | 0.00 | 0.00 | 87 | 1012.5 |
| 20260503040304 | 61 | 203 | 1.0 | 1.0 | 0.00 | 0.00 | 0.00 | 88 | 1012.4 |
| 20260503035804 | 61 | 203 | 0.0 | 1.0 | 0.00 | 0.00 | 0.00 | 87 | 1012.4 |
| 20260503035305 | 62 | 203 | 0.0 | 2.0 | 0.00 | 0.00 | 0.00 | 86 | 1012.2 |
| 20260503034804 | 62 | 203 | 0.0 | 2.0 | 0.00 | 0.00 | 0.00 | 86 | 1012.1 |
| 20260503034204 | 62 | 200 | 1.0 | 2.0 | 0.00 | 0.00 | 0.00 | 84 | 1011.9 |
| 20260503033704 | 63 | 360 | 1.0 | 2.0 | 0.00 | 0.00 | 0.00 | 82 | 1011.9 |
| 20260503033204 | 64 | 200 | 0.0 | 2.0 | 0.00 | 0.00 | 0.00 | 82 | 1011.6 |
| 20260503032704 | 65 | 201 | 1.0 | 2.0 | 0.00 | 0.00 | 0.00 | 80 | 1011.5 |
| 20260503032004 | 67 | 200 | 0.0 | 2.0 | 0.00 | 0.00 | 0.00 | 78 | 1011.5 |
| 20260503031504 | 68 | 360 | 0.0 | 2.0 | 0.00 | 0.00 | 0.00 | 77 | 1011.3 |
| 20260503031004 | 69 | 200 | 0.0 | 2.0 | 0.00 | 0.00 | 0.00 | 75 | 1011.2 |
| 20260503030504 | 70 | 200 | 0.0 | 2.0 | 0.00 | 0.00 | 0.00 | 73 | 1011.2 |
| 20260503030004 | 72 | 200 | 0.0 | 2.0 | 0.00 | 0.00 | 0.00 | 71 | 1011.1 |
| 20260503025504 | 72 | 200 | 1.0 | 2.0 | 0.00 | 0.00 | 0.00 | 70 | 1011.0 |
| 20260503025005 | 72 | 200 | 0.0 | 2.0 | 0.00 | 0.00 | 0.00 | 71 | 1011.0 |
| 20260503024505 | 73 | 200 | 2.0 | 2.0 | 0.00 | 0.00 | 0.00 | 70 | 1010.9 |